| time (UTC) | temp F | wind direction | speed MPH | gust MPH | rain 1hr in | rain 24hr in | rain mn in | humidity % | barometer mb |
| 20260505052932 | 57 | 255 | 3.0 | 9.0 | 0.00 | 0.00 | 0.00 | 84 | 1002.7 |
| 20260505052430 | 57 | 250 | 3.0 | 5.0 | 0.00 | 0.00 | 0.00 | 86 | 1002.6 |
| 20260505051927 | 58 | 244 | 3.0 | 5.0 | 0.00 | 0.00 | 0.00 | 86 | 1002.7 |
| 20260505051424 | 58 | 272 | 4.0 | 8.0 | 0.00 | 0.00 | 0.00 | 85 | 1002.6 |
| 20260505050922 | 58 | 257 | 3.0 | 8.0 | 0.00 | 0.00 | 0.00 | 86 | 1002.5 |
| 20260505050420 | 58 | 252 | 3.0 | 8.0 | 0.00 | 0.00 | 0.00 | 88 | 1002.1 |
| 20260505041347 | 58 | 237 | 2.0 | 3.0 | 0.00 | 0.41 | 0.41 | 89 | 1001.9 |
| 20260505040844 | 59 | 239 | 2.0 | 4.0 | 0.00 | 0.41 | 0.41 | 88 | 1001.4 |
| 20260505040342 | 59 | 233 | 3.0 | 5.0 | 0.00 | 0.41 | 0.41 | 88 | 1001.6 |
| 20260505035839 | 59 | 230 | 2.0 | 4.0 | 0.00 | 0.41 | 0.41 | 88 | 1001.5 |
| 20260505035334 | 59 | 221 | 3.0 | 4.0 | 0.00 | 0.41 | 0.41 | 87 | 1001.7 |
| 20260505034832 | 59 | 188 | 2.0 | 4.0 | 0.00 | 0.41 | 0.41 | 87 | 1001.9 |
| 20260505034328 | 60 | 220 | 1.0 | 7.0 | 0.00 | 0.41 | 0.41 | 86 | 1001.7 |
| 20260505033826 | 60 | 248 | 2.0 | 4.0 | 0.00 | 0.41 | 0.41 | 86 | 1002.0 |
| 20260505033322 | 60 | 207 | 4.0 | 6.0 | 0.00 | 0.41 | 0.41 | 86 | 1001.9 |
| 20260505032821 | 60 | 215 | 5.0 | 8.0 | 0.00 | 0.41 | 0.41 | 86 | 1001.6 |
| 20260505032316 | 60 | 218 | 5.0 | 7.0 | 0.00 | 0.41 | 0.41 | 85 | 1001.6 |
| 20260505031814 | 60 | 203 | 8.0 | 12.0 | 0.00 | 0.41 | 0.41 | 84 | 1001.8 |
| 20260505031310 | 60 | 222 | 5.0 | 12.0 | 0.00 | 0.41 | 0.41 | 83 | 1001.3 |
| 20260505030808 | 60 | 210 | 5.0 | 9.0 | 0.00 | 0.41 | 0.41 | 84 | 1001.3 |
| 20260505030304 | 59 | 205 | 3.0 | 7.0 | 0.00 | 0.41 | 0.41 | 85 | 1001.1 |
| 20260505025759 | 59 | 212 | 5.0 | 8.0 | 0.00 | 0.41 | 0.41 | 85 | 1001.0 |
| 20260505025257 | 59 | 192 | 2.0 | 7.0 | 0.00 | 0.41 | 0.41 | 85 | 1001.1 |
| 20260505024755 | 59 | 208 | 5.0 | 9.0 | 0.00 | 0.41 | 0.41 | 86 | 1001.0 |
| 20260505024252 | 59 | 161 | 4.0 | 7.0 | 0.00 | 0.41 | 0.41 | 86 | 1001.1 |
| 20260505023749 | 59 | 219 | 5.0 | 9.0 | 0.00 | 0.41 | 0.41 | 86 | 1001.3 |
| 20260505023246 | 59 | 176 | 1.0 | 7.0 | 0.00 | 0.41 | 0.41 | 86 | 1001.1 |
| 20260505022744 | 59 | 204 | 5.0 | 7.0 | 0.00 | 0.41 | 0.41 | 87 | 1001.2 |
| 20260505022241 | 59 | 160 | 3.0 | 6.0 | 0.00 | 0.41 | 0.41 | 88 | 1001.1 |
| 20260505021737 | 59 | 196 | 3.0 | 6.0 | 0.00 | 0.41 | 0.41 | 88 | 1000.9 |
| 20260505021235 | 59 | 204 | 7.0 | 7.0 | 0.05 | 0.41 | 0.41 | 88 | 1001.2 |
| 20260505020730 | 59 | 179 | 3.0 | 5.0 | 0.05 | 0.41 | 0.41 | 88 | 1000.9 |
| 20260505020225 | 59 | 217 | 5.0 | 6.0 | 0.02 | 0.41 | 0.41 | 88 | 1000.7 |
| 20260505015723 | 59 | 173 | 4.0 | 9.0 | 0.02 | 0.40 | 0.40 | 88 | 1000.3 |
| 20260505015220 | 59 | 172 | 4.0 | 11.0 | 0.05 | 0.40 | 0.40 | 88 | 1000.6 |
| 20260505014717 | 59 | 216 | 10.0 | 15.0 | 0.00 | 0.39 | 0.39 | 88 | 1000.5 |
| 20260505014214 | 59 | 212 | 9.0 | 11.0 | 0.02 | 0.39 | 0.39 | 90 | 1000.4 |
| 20260505013711 | 59 | 211 | 6.0 | 15.0 | 0.05 | 0.39 | 0.39 | 90 | 1000.2 |
| 20260505013208 | 59 | 213 | 5.0 | 16.0 | 0.05 | 0.39 | 0.39 | 90 | 1000.4 |
| 20260505012706 | 59 | 206 | 19.0 | 23.0 | 0.02 | 0.39 | 0.39 | 89 | 1000.7 |
| 20260505012203 | 60 | 217 | 4.0 | 13.0 | 0.00 | 0.38 | 0.38 | 88 | 1001.1 |
| 20260505011658 | 60 | 180 | 9.0 | 23.0 | 0.00 | 0.38 | 0.38 | 85 | 1000.9 |
| 20260505011156 | 61 | 188 | 9.0 | 17.0 | 0.00 | 0.38 | 0.38 | 83 | 1001.1 |
| 20260505010651 | 61 | 218 | 5.0 | 13.0 | 0.00 | 0.38 | 0.38 | 82 | 1000.6 |
| 20260505010149 | 61 | 215 | 7.0 | 13.0 | 0.00 | 0.38 | 0.38 | 83 | 1000.7 |
| 20260505005644 | 61 | 222 | 2.0 | 11.0 | 0.00 | 0.38 | 0.38 | 83 | 1000.4 |
| 20260505005142 | 62 | 192 | 2.0 | 10.0 | 0.00 | 0.38 | 0.38 | 83 | 1000.2 |
| 20260505004639 | 61 | 215 | 4.0 | 10.0 | 0.00 | 0.38 | 0.38 | 84 | 1000.1 |
| 20260505004135 | 61 | 219 | 6.0 | 10.0 | 0.00 | 0.38 | 0.38 | 86 | 999.9 |
| 20260505003632 | 61 | 209 | 8.0 | 8.0 | 0.00 | 0.38 | 0.38 | 88 | 999.6 |
| 20260505003130 | 61 | 138 | 4.0 | 8.0 | 0.02 | 0.38 | 0.38 | 87 | 999.0 |
| 20260505002626 | 62 | 167 | 5.0 | 12.0 | 0.05 | 0.38 | 0.38 | 86 | 999.4 |
| 20260505002124 | 62 | 218 | 6.0 | 15.0 | 0.07 | 0.37 | 0.37 | 86 | 999.7 |
| 20260505001621 | 61 | 207 | 10.0 | 19.0 | 0.07 | 0.37 | 0.37 | 85 | 1000.4 |
| 20260505001119 | 59 | 263 | 1.0 | 10.0 | 0.09 | 0.36 | 0.36 | 90 | 1000.2 |
| 20260505000615 | 59 | 232 | 0.0 | 4.0 | 0.21 | 0.35 | 0.35 | 90 | 1000.1 |
| 20260505000114 | 58 | 262 | 4.0 | 16.0 | 0.38 | 0.34 | 0.34 | 87 | 1000.2 |
| 20260504235609 | 58 | 290 | 5.0 | 17.0 | 0.19 | 0.31 | 0.31 | 80 | 1000.1 |
| 20260504235106 | 68 | 300 | 7.0 | 10.0 | 0.00 | 0.28 | 0.28 | 71 | 1000.3 |
| 20260504234603 | 68 | 236 | 5.0 | 11.0 | 0.00 | 0.28 | 0.28 | 71 | 998.9 |
| 20260504234101 | 69 | 217 | 5.0 | 11.0 | 0.00 | 0.28 | 0.28 | 69 | 998.4 |
| 20260504233555 | 69 | 185 | 11.0 | 11.0 | 0.00 | 0.28 | 0.28 | 69 | 998.2 |
| 20260504233052 | 68 | 214 | 6.0 | 11.0 | 0.00 | 0.28 | 0.28 | 70 | 998.6 |
| 20260504232550 | 68 | 208 | 5.0 | 17.0 | 0.00 | 0.28 | 0.28 | 69 | 998.5 |
| 20260504232047 | 67 | 196 | 4.0 | 9.0 | 0.00 | 0.28 | 0.28 | 76 | 998.9 |
| 20260504231543 | 67 | 166 | 3.0 | 6.0 | 0.00 | 0.28 | 0.28 | 77 | 998.5 |
| 20260504231040 | 68 | 219 | 3.0 | 11.0 | 0.00 | 0.28 | 0.28 | 74 | 998.6 |
| 20260504230536 | 67 | 175 | 3.0 | 5.0 | 0.00 | 0.28 | 0.28 | 74 | 998.2 |
| 20260504230035 | 68 | 180 | 2.0 | 4.0 | 0.00 | 0.28 | 0.28 | 72 | 998.5 |
| 20260504225532 | 69 | 171 | 3.0 | 3.0 | 0.00 | 0.28 | 0.28 | 70 | 998.5 |
| 20260504225029 | 68 | 209 | 3.0 | 5.0 | 0.00 | 0.28 | 0.28 | 71 | 998.8 |
| 20260504224525 | 65 | 279 | 4.0 | 7.0 | 0.00 | 0.27 | 0.27 | 74 | 998.7 |
| 20260504224023 | 63 | 277 | 3.0 | 8.0 | 0.00 | 0.27 | 0.27 | 79 | 998.6 |
| 20260504223519 | 62 | 265 | 5.0 | 9.0 | 0.24 | 0.27 | 0.27 | 80 | 998.5 |
| 20260504223015 | 60 | 276 | 9.0 | 15.0 | 0.33 | 0.26 | 0.26 | 87 | 998.8 |
| 20260504222512 | 64 | 233 | 5.0 | 11.0 | 0.07 | 0.22 | 0.22 | 80 | 999.5 |
| 20260504222010 | 63 | 232 | 2.0 | 11.0 | 0.05 | 0.21 | 0.21 | 80 | 999.4 |
| 20260504221507 | 62 | 175 | 5.0 | 6.0 | 0.07 | 0.20 | 0.20 | 90 | 999.6 |
| 20260504221004 | 62 | 279 | 7.0 | 7.0 | 0.87 | 0.20 | 0.20 | 88 | 999.4 |
| 20260504220500 | 62 | 40 | 4.0 | 11.0 | 0.80 | 0.17 | 0.17 | 85 | 999.7 |
| 20260504215957 | 69 | 208 | 14.0 | 34.0 | 0.07 | 0.05 | 0.05 | 69 | 999.9 |
| 20260504215454 | 71 | 262 | 4.0 | 11.0 | 0.00 | 0.04 | 0.04 | 62 | 999.1 |
| 20260504214950 | 72 | 242 | 4.0 | 17.0 | 0.00 | 0.04 | 0.04 | 59 | 999.2 |
| 20260504214446 | 73 | 216 | 10.0 | 20.0 | 0.00 | 0.04 | 0.04 | 56 | 999.2 |
| 20260504213943 | 75 | 210 | 6.0 | 21.0 | 0.00 | 0.04 | 0.04 | 51 | 999.2 |
| 20260504213439 | 74 | 207 | 17.0 | 19.0 | 0.00 | 0.04 | 0.04 | 51 | 999.0 |
| 20260504212937 | 71 | 224 | 4.0 | 9.0 | 0.21 | 0.04 | 0.04 | 62 | 999.0 |
| 20260504212432 | 73 | 174 | 3.0 | 10.0 | 0.21 | 0.04 | 0.04 | 61 | 999.4 |
| 20260504211931 | 76 | 240 | 6.0 | 17.0 | 0.00 | 0.00 | 0.00 | 48 | 999.1 |
| 20260504211426 | 77 | 211 | 7.0 | 13.0 | 0.00 | 0.00 | 0.00 | 44 | 999.6 |
| 20260504210924 | 78 | 234 | 9.0 | 25.0 | 0.00 | 0.00 | 0.00 | 42 | 999.4 |
| 20260504210421 | 79 | 211 | 15.0 | 15.0 | 0.00 | 0.00 | 0.00 | 39 | 999.4 |
| 20260504205918 | 79 | 247 | 7.0 | 12.0 | 0.00 | 0.00 | 0.00 | 38 | 999.6 |
| 20260504205416 | 81 | 217 | 10.0 | 20.0 | 0.00 | 0.00 | 0.00 | 34 | 999.6 |
| 20260504204914 | 80 | 229 | 6.0 | 15.0 | 0.00 | 0.00 | 0.00 | 36 | 999.6 |
| 20260504204412 | 79 | 237 | 4.0 | 17.0 | 0.00 | 0.00 | 0.00 | 38 | 999.6 |
| 20260504203911 | 81 | 222 | 5.0 | 26.0 | 0.00 | 0.00 | 0.00 | 37 | 999.6 |
| 20260504203408 | 79 | 242 | 12.0 | 20.0 | 0.00 | 0.00 | 0.00 | 37 | 999.6 |
| 20260504202903 | 80 | 262 | 5.0 | 13.0 | 0.00 | 0.00 | 0.00 | 37 | 999.6 |
| 20260504202401 | 79 | 244 | 5.0 | 17.0 | 0.00 | 0.00 | 0.00 | 37 | 999.8 |
| 20260504201857 | 79 | 214 | 10.0 | 20.0 | 0.00 | 0.00 | 0.00 | 36 | 999.7 |
| 20260504201355 | 80 | 244 | 5.0 | 20.0 | 0.00 | 0.00 | 0.00 | 35 | 999.6 |
| 20260504200852 | 79 | 213 | 15.0 | 15.0 | 0.00 | 0.00 | 0.00 | 36 | 999.9 |
| 20260504200348 | 80 | 232 | 4.0 | 18.0 | 0.00 | 0.00 | 0.00 | 37 | 999.8 |
| 20260504195845 | 81 | 203 | 16.0 | 18.0 | 0.00 | 0.00 | 0.00 | 35 | 1000.0 |
| 20260504195340 | 82 | 246 | 5.0 | 14.0 | 0.00 | 0.00 | 0.00 | 35 | 1000.0 |
| 20260504194838 | 79 | 255 | 6.0 | 9.0 | 0.00 | 0.00 | 0.00 | 37 | 1000.3 |
| 20260504194333 | 79 | 223 | 3.0 | 12.0 | 0.00 | 0.00 | 0.00 | 35 | 1000.1 |
| 20260504193829 | 80 | 223 | 7.0 | 19.0 | 0.00 | 0.00 | 0.00 | 34 | 1000.4 |
| 20260504193327 | 80 | 246 | 6.0 | 18.0 | 0.00 | 0.00 | 0.00 | 34 | 1000.3 |
| 20260504192826 | 80 | 229 | 5.0 | 21.0 | 0.00 | 0.00 | 0.00 | 35 | 1000.5 |
| 20260504192323 | 79 | 254 | 11.0 | 17.0 | 0.00 | 0.00 | 0.00 | 36 | 1000.2 |
| 20260504191822 | 78 | 247 | 9.0 | 16.0 | 0.00 | 0.00 | 0.00 | 36 | 1000.4 |
| 20260504191319 | 79 | 223 | 12.0 | 19.0 | 0.00 | 0.00 | 0.00 | 35 | 1000.6 |
| 20260504190814 | 81 | 240 | 3.0 | 12.0 | 0.00 | 0.00 | 0.00 | 36 | 1000.4 |
| 20260504190310 | 80 | 284 | 6.0 | 11.0 | 0.00 | 0.00 | 0.00 | 37 | 1000.3 |
| 20260504185807 | 79 | 233 | 4.0 | 10.0 | 0.00 | 0.00 | 0.00 | 39 | 1000.3 |
| 20260504185305 | 78 | 206 | 19.0 | 20.0 | 0.00 | 0.00 | 0.00 | 38 | 1000.6 |
| 20260504184800 | 78 | 230 | 5.0 | 17.0 | 0.00 | 0.00 | 0.00 | 39 | 1000.2 |
| 20260504184256 | 79 | 252 | 7.0 | 12.0 | 0.00 | 0.00 | 0.00 | 37 | 1000.4 |
| 20260504183752 | 78 | 241 | 5.0 | 19.0 | 0.00 | 0.00 | 0.00 | 39 | 1000.4 |
| 20260504183249 | 79 | 223 | 6.0 | 11.0 | 0.00 | 0.00 | 0.00 | 39 | 1000.6 |
| 20260504182747 | 78 | 258 | 2.0 | 8.0 | 0.00 | 0.00 | 0.00 | 39 | 1000.8 |
| 20260504182244 | 77 | 278 | 4.0 | 17.0 | 0.00 | 0.00 | 0.00 | 42 | 1000.7 |
| 20260504181742 | 77 | 221 | 6.0 | 22.0 | 0.00 | 0.00 | 0.00 | 39 | 1000.7 |
| 20260504181239 | 78 | 235 | 7.0 | 9.0 | 0.00 | 0.00 | 0.00 | 40 | 1000.8 |
| 20260504180738 | 78 | 212 | 9.0 | 14.0 | 0.00 | 0.00 | 0.00 | 40 | 1000.9 |
| 20260504180236 | 77 | 223 | 7.0 | 13.0 | 0.00 | 0.00 | 0.00 | 39 | 1001.0 |
| 20260504175733 | 78 | 196 | 9.0 | 16.0 | 0.00 | 0.00 | 0.00 | 39 | 1001.0 |
| 20260504175230 | 76 | 220 | 10.0 | 17.0 | 0.00 | 0.00 | 0.00 | 39 | 1001.1 |
| 20260504174728 | 77 | 268 | 4.0 | 16.0 | 0.00 | 0.00 | 0.00 | 40 | 1000.8 |
| 20260504174226 | 76 | 209 | 11.0 | 25.0 | 0.00 | 0.00 | 0.00 | 39 | 1001.3 |
| 20260504173722 | 76 | 241 | 11.0 | 23.0 | 0.00 | 0.00 | 0.00 | 40 | 1001.2 |
| 20260504173219 | 76 | 216 | 9.0 | 22.0 | 0.00 | 0.00 | 0.00 | 41 | 1001.2 |
| 20260504172715 | 75 | 208 | 5.0 | 16.0 | 0.00 | 0.00 | 0.00 | 45 | 1001.3 |
| 20260504172212 | 76 | 215 | 5.0 | 13.0 | 0.00 | 0.00 | 0.00 | 45 | 1001.4 |
| 20260504171709 | 75 | 220 | 11.0 | 16.0 | 0.00 | 0.00 | 0.00 | 43 | 1001.5 |
| 20260504171206 | 75 | 202 | 9.0 | 18.0 | 0.00 | 0.00 | 0.00 | 43 | 1001.4 |
| 20260504170702 | 75 | 243 | 7.0 | 14.0 | 0.00 | 0.00 | 0.00 | 44 | 1001.7 |
| 20260504170200 | 75 | 178 | 5.0 | 17.0 | 0.00 | 0.00 | 0.00 | 48 | 1001.7 |
| 20260504160118 | 72 | 246 | 8.0 | 16.0 | 0.00 | 0.00 | 0.00 | 53 | 1002.4 |
| 20260504151045 | 70 | 216 | 13.0 | 16.0 | 0.00 | 0.00 | 0.00 | 52 | 1003.1 |
| 20260504150543 | 69 | 180 | 8.0 | 16.0 | 0.00 | 0.00 | 0.00 | 55 | 1003.2 |
| 20260504141008 | 65 | 235 | 2.0 | 11.0 | 0.00 | 0.00 | 0.00 | 63 | 1003.4 |
| 20260504140505 | 65 | 207 | 4.0 | 9.0 | 0.00 | 0.00 | 0.00 | 62 | 1003.6 |
| 20260504130430 | 58 | 256 | 4.0 | 9.0 | 0.00 | 0.00 | 0.00 | 73 | 1004.3 |
| 20260504110317 | 49 | 209 | 3.0 | 5.0 | 0.00 | 0.00 | 0.00 | 87 | 1004.6 |
| 20260504100234 | 49 | 180 | 4.0 | 7.0 | 0.00 | 0.00 | 0.00 | 87 | 1005.0 |
| 20260504081628 | 49 | 200 | 4.0 | 8.0 | 0.00 | 0.00 | 0.00 | 85 | 1004.8 |
| 20260504081124 | 50 | 199 | 3.0 | 7.0 | 0.00 | 0.00 | 0.00 | 84 | 1005.1 |
| 20260504080621 | 50 | 178 | 4.0 | 6.0 | 0.00 | 0.00 | 0.00 | 84 | 1004.6 |
| 20260504080117 | 50 | 182 | 2.0 | 7.0 | 0.00 | 0.00 | 0.00 | 84 | 1004.9 |